Location: Gebenbach
(49.5378°N, 11.8735°E)
Time: 03:37:04
(UTC+00:00)

Cosmos 1844 Rocket - Pass Details

Date: 29 October 2020
Orbit: 823 x 846 km, 71.0° (Epoch: 27 November)

Event Time Altitude Azimuth Distance (km) Brightness Sun altitude
Rises 18:25:36 0° 334° (NNW) 3,412 6.3 -24.9°
Reaches altitude 10° 18:28:32 10° 348° (NNW) 2,477 5.3 -25.4°
Enters shadow 18:31:47 22° 21° (NNE) 1,766 4.2 -25.9°
